Flag for US Minor Outlying Islands Weather past 2 weeks in Midway, US Minor Outlying Islands

69 °F

Passing clouds.

Feels Like: 69 °F
Forecast: 69 / 76 °F
Wind: 8 mph from Northeast

Location: Midway Island Naval Air Facility

Current Time: Nov 27, 2015 at 3:02:49 AM

Latest Report: Nov 27, 2015 at 2:01 AM

Visibility: 10 mi

Pressure: 30.27 "Hg

Humidity: 70%

Dew point: 59 °F

Location of MidwayLocation

Historic Weather in Midway — Graph


Midway temperature yesterday

Maximum temperature yesterday: 75 °F (at 12:01 PM)
Minimum temperature yesterday: 69 °F (at 1:01 AM)
Average temperature yesterday: 71 °F

Past Weeks' High & Low Weather Summary

High82 °F (Nov 12, 1:13 PM)94% (Nov 14, 11:43 PM)30.30 "Hg (Nov 14, 11:43 PM)
Low64 °F (Nov 17, 4:01 AM)47% (Nov 18, 4:01 AM)29.85 "Hg (Nov 15, 4:01 PM)
Average72 °F68%30.14 "Hg
* Reported Nov 12 2:01 AM — Nov 27 2:01 AM, Midway, Weather by CustomWeather, © 2015

Note: Actual official high and low records may vary slightly from our data, if they occured in-between our weather recording intervals... More about our weather records


Midway weather history for previous 24 hours

Time TempWeatherWind HumidityBarometerVisibility
2:01 AM
Fri, Nov 27
69 °FPassing clouds.8 mph70%30.27 "Hg10 mi
1:16 AM70 °FPassing clouds.12 mph73%30.26 "Hg10 mi
1:01 AM72 °FPassing clouds.13 mph73%30.25 "Hg10 mi
12:01 AM71 °FPassing clouds.10 mph68%30.27 "Hg10 mi
11:01 PM
Thu, Nov 26
71 °FPassing clouds.13 mph73%30.27 "Hg10 mi
10:01 PM70 °FPassing clouds.7 mph71%30.29 "Hg10 mi
9:01 PM71 °FPassing clouds.8 mph71%30.28 "Hg10 mi
8:01 PM70 °FPassing clouds.8 mph73%30.27 "Hg10 mi
7:01 PM70 °FPassing clouds.8 mph73%30.26 "Hg10 mi
6:01 PM71 °FClear.7 mph68%30.24 "Hg10 mi
5:01 PM73 °FSunny.10 mph66%30.22 "Hg10 mi
4:01 PM75 °FPassing clouds.10 mph64%30.22 "Hg10 mi
3:01 PM75 °FPassing clouds.9 mph64%30.22 "Hg10 mi
2:01 PM74 °FCloudy.9 mph64%30.23 "Hg10 mi
1:33 PM73 °FMostly cloudy.12 mph69%30.24 "Hg10 mi
1:01 PM73 °FPartly sunny.12 mph69%30.25 "Hg10 mi
12:01 PM75 °FSunny.13 mph64%30.27 "Hg10 mi
11:01 AM72 °FSunny.9 mph73%30.29 "Hg10 mi
10:01 AM72 °FPassing clouds.13 mph73%30.29 "Hg10 mi
9:01 AM72 °FSunny.10 mph71%30.30 "Hg10 mi
8:01 AM70 °FSunny.8 mph73%30.29 "Hg10 mi
7:01 AM69 °FClear.7 mph70%30.27 "Hg10 mi
6:01 AM70 °FClear.8 mph66%30.25 "Hg10 mi
5:01 AM70 °FClear.9 mph66%30.24 "Hg10 mi
4:01 AM71 °FPartly cloudy.9 mph66%30.25 "Hg10 mi
3:01 AM69 °FOvercast.8 mph79%30.26 "Hg10 mi
Weather by CustomWeather, © 2015

See weather overviewHow to use our weather pages